Regional Weather Roundup
Issued by NWS

Home | Current Version | Previous Version | Text Only | Print | Product List | Glossary On
Versions: 1 2 3 4 5 6 7 8 9 10 11 12 13 14 15 16 17 18 19 20 21 22 23 24 25 26 27 28 29 30 31 32 33 34 35 36 37 38 39 40 41 42 43 44 45 46 47 48 49 50
000
ASUS44 KMEG 261800
RWRTN
TENNESSEE HOURLY STATE WEATHER ROUNDUP
NATIONAL WEATHER SERVICE MEMPHIS TN
100 PM CDT SUN MAR 26 2017

TNZ002-004-019-021-049-052-054-088>092-261900-
WEST TENNESSEE

CITY           SKY/WX    TMP DP  RH WIND       PRES   REMARKS
MEMPHIS INTL   MOSUNNY   72  53  51 SW14      29.98F
NWS MEMPHIS      N/A     69 N/A N/A MISG        N/A
JACKSON        PTSUNNY   71  58  63 SW10      29.97F
DYERSBURG      MOSUNNY   67  54  63 W8        29.98F
PARIS          CLOUDY    63  55  77 SW10      29.96F
$$

TNZ008-025-027-028-033-062-065-066-261900-
NORTH MIDDLE TENNESSEE

CITY           SKY/WX    TMP DP  RH WIND       PRES   REMARKS
NASHVILLE      PTSUNNY   69  55  60 S12G20    30.00S
CLARKSVILLE    PTSUNNY   66  56  70 SW12      29.96F
SMYRNA         PTSUNNY   68  59  73 S10       30.01F
CROSSVILLE     CLOUDY    61  57  87 S8        30.05F
$$

TNZ061-075-076-078-094-096-097-261900-
SOUTH MIDDLE TENNESSEE

CITY           SKY/WX    TMP DP  RH WIND       PRES   REMARKS
TULLAHOMA      CLOUDY    61  61 100 SW9       30.05S
WINCHESTER     CLOUDY    64  59  82 S7        30.05S
COLUMBIA       PTSUNNY   68  66  94 S14       29.99F
SHELBYVILLE    CLOUDY    66  61  82 S15       30.04S
$$

TNZ017-018-042-046-047-261900-
NORTHEAST TENNESSEE

CITY           SKY/WX    TMP DP  RH WIND       PRES   REMARKS
TRI CITIES     PTSUNNY   72  50  45 SW12G17   30.06F
$$

TNZ012-013-036-069-073-074-261900-
CENTRAL EAST TENNESSEE

CITY           SKY/WX    TMP DP  RH WIND       PRES   REMARKS
KNOXVILLE      CLOUDY    70  57  63 SW14      30.03F
OAK RIDGE      LGT RAIN  63  59  87 VRB3      30.06S
GATLINBURG     MOSUNNY   73  48  40 SW13      30.02F
$$

TNZ083-085-099-261900-
SOUTHEAST TENNESSEE

CITY           SKY/WX    TMP DP  RH WIND       PRES   REMARKS
CHATTANOOGA    PTSUNNY   70  57  63 S21G26    30.06F
$$

SKY/WX REPORTED AS FAIR MEANS FEW OR NO CLOUDS BELOW
12 THOUSAND FEET.





USA.gov is the U.S. government's official web portal to all federal, state and local government web resources and services.